Gainesville, GA

9:15 AM EDT on September 28, 2016 (GMT -0400)
Gilmer Memorial

Weather History for KGVL - January, 2011

Change the Weather History Date:

Friday, January 14, 2011

  Actual Average Record
Temperature  
Mean Temperature 30 °F 41 °F  
Max Temperature 41 °F 50 °F 76 °F (1932)
Min Temperature 19 °F 33 °F 16 °F (1948)
Degree Days  
Heating Degree Days 35 24  
Month to date heating degree days 336  
Since 1 July heating degree days 1532  
Moisture  
Dew Point 16 °F    
Average Humidity 59    
Maximum Humidity 88    
Minimum Humidity 27    
Precipitation  
Precipitation 0.00 in 0.14 in 1.34 in (1940)
Month to date precipitation 1.88  
Year to date precipitation 1.88  
Sea Level Pressure  
Sea Level Pressure 30.39 in    
Wind  
Wind Speed 1 mph (West)    
Max Wind Speed 6 mph    
Max Gust Speed -    
Visibility 10 miles    
Events      
T = Trace of Precipitation, MM = Missing Value Source: NWS Daily Summary

Daily Weather History Graph

Daily Weather History Graph

Search for Another Location

Airport or City:

Trip Planner

Search our weather history database for the weather conditions in past years. The results will help you decide how hot, cold, wet, or windy it might be!

Date:

Astronomy

Jan. 14, 2011 Rise Set
Actual Time 7:41 AM EST 5:47 PM EST
Civil Twilight 7:14 AM EST 6:14 PM EST
Nautical Twilight 6:43 AM EST 6:45 PM EST
Astronomical Twilight 6:13 AM EST 7:15 PM EST
Moon 1:04 PM EST (1/14) 2:41 AM EST (1/14)
Length of Visible Light 11h 00m
Length of Day
10h 06m
Waxing Gibbous, 71% of the Moon is Illuminated
Jan 14
Waxing Gibbous
Jan 19
Full
Jan 26
Last Quarter
Feb 2
New
Feb 11
First Quarter

Hourly Weather History & Observations

Time (EST) Temp. Windchill Dew Point Humidity Pressure Visibility Wind Dir Wind Speed Gust Speed Precip Events Conditions
12:53 AM 21.9 °F - 16.0 °F 78% 30.40 in 10.0 mi Calm Calm - N/A   Clear
1:53 AM 21.0 °F 16.2 °F 16.0 °F 81% 30.40 in 10.0 mi NW 3.5 mph - N/A   Clear
2:53 AM 21.0 °F - 17.1 °F 85% 30.40 in 10.0 mi Calm Calm - N/A   Clear
3:53 AM 19.9 °F - 16.0 °F 85% 30.39 in 10.0 mi Calm Calm - N/A   Clear
4:53 AM 19.9 °F - 15.1 °F 81% 30.39 in 10.0 mi Calm Calm - N/A   Clear
5:53 AM 19.0 °F - 16.0 °F 88% 30.40 in 10.0 mi Calm Calm - N/A   Clear
6:53 AM 19.9 °F - 15.1 °F 81% 30.41 in 10.0 mi Calm Calm - N/A   Clear
7:53 AM 19.0 °F - 14.0 °F 81% 30.43 in 10.0 mi Calm Calm - N/A   Clear
8:53 AM 21.9 °F - 17.1 °F 82% 30.44 in 10.0 mi Calm Calm - N/A   Clear
9:53 AM 28.9 °F - 19.9 °F 69% 30.44 in 10.0 mi Calm Calm - N/A   Clear
10:53 AM 34.0 °F - 19.0 °F 54% 30.45 in 10.0 mi Calm Calm - N/A   Clear
11:53 AM 35.1 °F - 19.0 °F 52% 30.42 in 10.0 mi Calm Calm - N/A   Clear
12:53 PM 37.0 °F - 18.0 °F 46% 30.39 in 10.0 mi Calm Calm - N/A   Clear
1:53 PM 37.9 °F 33.5 °F 15.1 °F 39% 30.36 in 10.0 mi SW 5.8 mph - N/A   Clear
2:53 PM 41.0 °F - 9.0 °F 27% 30.34 in 10.0 mi Calm Calm - N/A   Clear
3:53 PM 41.0 °F 38.0 °F 12.9 °F 32% 30.35 in 10.0 mi WNW 4.6 mph - N/A   Clear
4:53 PM 39.9 °F 36.7 °F 15.1 °F 36% 30.36 in 10.0 mi WSW 4.6 mph - N/A   Clear
5:53 PM 39.0 °F - 12.9 °F 34% 30.37 in 10.0 mi Calm Calm - N/A   Clear
6:53 PM 37.0 °F - 15.1 °F 41% 30.36 in 10.0 mi Calm Calm - N/A   Clear
7:53 PM 36.0 °F 32.1 °F 15.1 °F 43% 30.38 in 10.0 mi West 4.6 mph - N/A   Clear
8:53 PM 33.1 °F - 16.0 °F 50% 30.38 in 10.0 mi Calm Calm - N/A   Clear
9:53 PM 30.0 °F 26.5 °F 17.1 °F 59% 30.37 in 10.0 mi West 3.5 mph - N/A   Clear
10:53 PM 32.0 °F 26.4 °F 15.1 °F 50% 30.35 in 10.0 mi West 5.8 mph - N/A   Clear
11:53 PM 30.9 °F - 15.1 °F 52% 30.33 in 10.0 mi Calm Calm - N/A   Clear